Вернуться в каталог

COSMOS 768

АктивенВоенныеLEO
NORAD 8292·PAYLOAD·🇷🇺 Russia

Запущен Sep 17, 1975 с Plesetsk Cosmodrome

Loading…

Ближайшие Пролёты (ближайшие 24 часа)

TLE

СвежийSource: Space-Track

Эпоха: Sep 14, 2026, 05:32 UTC

1 08292U 75086H   26257.23088302 -.00000005  00000-0  74824-4 0  9990
2 08292  74.0140 356.0877 0012607 161.8167 222.0991 12.46116213319590

Отслеживайте COSMOS 768 в реальном времени с AllMySat

Download on the App Store